Farmington, MO

7:19 AM CST on December 09, 2019 (GMT -0600)
Farmington Regional

Weather History for KFAM - October, 2019

Change the Weather History Date:

Saturday, October 5, 2019

  Actual Average Record
Temperature  
Mean Temperature 64 °F -  
Max Temperature 79 °F 69 °F 87 °F (2007)
Min Temperature 48 °F 47 °F 32 °F (1999)
Degree Days  
Heating Degree Days 2    
Growing Degree Days 14 (Base 50)    
Moisture  
Dew Point 50 °F    
Average Humidity 63    
Maximum Humidity 97    
Minimum Humidity 33    
Precipitation  
Precipitation 0.00 in - - ()
Sea Level Pressure  
Sea Level Pressure 30.07 in    
Wind  
Wind Speed 3 mph (South)    
Max Wind Speed 13 mph    
Max Gust Speed -    
Visibility 10 miles    
Events      
Averages and records for this station are not official NWS values.
T = Trace of Precipitation, MM = Missing Value Source: NWS Daily Summary

Daily Weather History Graph

Daily Weather History Graph

Search for Another Location

Airport or City:

Astronomy

Oct. 05, 2019 Rise Set
Actual Time 7:00 AM CDT 6:39 PM CDT
Civil Twilight 6:34 AM CDT 7:05 PM CDT
Nautical Twilight 6:04 AM CDT 7:35 PM CDT
Astronomical Twilight 5:33 AM CDT 8:06 PM CDT
Moon 2:20 PM CDT (10/5) No Moon Set
Length of Visible Light 12h 30m
Length of Day
11h 38m
Waxing Crescent, 50% of the Moon is Illuminated
Oct 5
Waxing Crescent
Oct 13
Full
Oct 21
Last Quarter
Oct 27
New
Nov 4
First Quarter

Hourly Weather History & Observations

Time (CDT) Temp. Dew Point Humidity Pressure Visibility Wind Dir Wind Speed Gust Speed Precip Events Conditions
12:56 AM 52.0 °F 46.9 °F 83% 30.20 in 10.0 mi Calm Calm - N/A   Clear
1:56 AM 52.0 °F 48.0 °F 86% 30.18 in 10.0 mi Calm Calm - N/A   Clear
2:56 AM 51.1 °F 48.0 °F 89% 30.17 in 10.0 mi Calm Calm - N/A   Clear
3:56 AM 50.0 °F 46.9 °F 89% 30.16 in 10.0 mi Calm Calm - N/A   Clear
4:56 AM 48.9 °F 46.0 °F 90% 30.15 in 10.0 mi Calm Calm - N/A   Clear
5:56 AM 48.9 °F 46.9 °F 93% 30.14 in 10.0 mi Calm Calm - N/A   Clear
6:56 AM 48.9 °F 48.0 °F 97% 30.14 in 10.0 mi Calm Calm - N/A   Clear
7:56 AM 53.1 °F 50.0 °F 89% 30.14 in 10.0 mi Calm Calm - N/A   Clear
8:56 AM 60.1 °F 50.0 °F 69% 30.12 in 10.0 mi South 6.9 mph - N/A   Clear
9:56 AM 66.9 °F 50.0 °F 54% 30.09 in 10.0 mi SSE 8.1 mph - N/A   Clear
10:56 AM 73.0 °F 48.0 °F 41% 30.08 in 10.0 mi South 10.4 mph - N/A   Clear
11:56 AM 78.1 °F 48.0 °F 35% 30.06 in 10.0 mi South 12.7 mph - N/A   Clear
12:56 PM 78.1 °F 46.9 °F 33% 30.06 in 10.0 mi SSW 5.8 mph - N/A   Clear
1:56 PM 79.0 °F 48.9 °F 35% 30.02 in 10.0 mi South 11.5 mph - N/A   Partly Cloudy
2:56 PM 77.0 °F 48.0 °F 36% 30.01 in 10.0 mi SSW 6.9 mph - N/A   Scattered Clouds
3:56 PM 77.0 °F 51.1 °F 40% 30.00 in 10.0 mi SSE 8.1 mph - N/A   Mostly Cloudy
4:56 PM 77.0 °F 52.0 °F 42% 29.99 in 10.0 mi South 8.1 mph - N/A   Clear
5:56 PM 75.0 °F 53.1 °F 46% 29.99 in 10.0 mi South 6.9 mph - N/A   Scattered Clouds
6:56 PM 72.0 °F 52.0 °F 49% 29.99 in 10.0 mi SSW 5.8 mph - N/A   Mostly Cloudy
7:56 PM 71.1 °F 54.0 °F 55% 30.00 in 10.0 mi South 6.9 mph - N/A   Mostly Cloudy
8:56 PM 72.0 °F 54.0 °F 53% 29.98 in 10.0 mi NW 8.1 mph - N/A   Clear
9:56 PM 69.1 °F 54.0 °F 58% 29.99 in 10.0 mi NNW 3.5 mph - N/A   Clear
10:56 PM 64.9 °F 55.0 °F 70% 30.02 in 10.0 mi South 3.5 mph - N/A   Mostly Cloudy
11:56 PM 64.0 °F 55.0 °F 73% 30.01 in 10.0 mi Calm Calm - N/A   Partly Cloudy